Walnut Ridge, AR

12:54 AM CDT on April 24, 2018 (GMT -0500)
Walnut Ridge Regional

Weather History for KARG - January, 2015

Change the Weather History Date:

Thursday, January 8, 2015

  Actual Average Record
Temperature  
Mean Temperature 17 °F -  
Max Temperature 26 °F 43 °F 68 °F (2006)
Min Temperature 8 °F 29 °F 8 °F (2015)
Degree Days  
Heating Degree Days 48    
Moisture  
Dew Point 3 °F    
Average Humidity 52    
Maximum Humidity 67    
Minimum Humidity 40    
Precipitation  
Precipitation 0.00 in - - ()
Sea Level Pressure  
Sea Level Pressure 30.51 in    
Wind  
Wind Speed 11 mph (SSW)    
Max Wind Speed 25 mph    
Max Gust Speed 31 mph    
Visibility 10 miles    
Events      
Averages and records for this station are not official NWS values.
T = Trace of Precipitation, MM = Missing Value Source: NWS Daily Summary

Daily Weather History Graph

Daily Weather History Graph

Search for Another Location

Airport or City:

Astronomy

Jan. 08, 2015 Rise Set
Actual Time 7:15 AM CST 5:05 PM CST
Civil Twilight 6:46 AM CST 5:34 PM CST
Nautical Twilight 6:14 AM CST 6:05 PM CST
Astronomical Twilight 5:43 AM CST 6:37 PM CST
Moon 8:38 PM CST (1/8) 9:07 AM CST (1/8)
Length of Visible Light 10h 47m
Length of Day
9h 50m
Waning Gibbous, 89% of the Moon is Illuminated
Jan 8
Waning Gibbous
Jan 13
Last Quarter
Jan 20
New
Jan 26
First Quarter
Feb 3
Full

Hourly Weather History & Observations

Time (CST) Temp. Windchill Dew Point Humidity Pressure Visibility Wind Dir Wind Speed Gust Speed Precip Events Conditions
12:15 AM 10.4 °F -4.1 °F -5.8 °F 48% 30.85 in 10.0 mi North 11.5 mph - N/A   Clear
12:35 AM 10.4 °F -2.4 °F -7.6 °F 44% 30.85 in 10.0 mi North 9.2 mph - N/A   Clear
12:55 AM 10.4 °F -3.3 °F -7.6 °F 44% 30.84 in 10.0 mi North 10.4 mph - N/A   Clear
1:15 AM 10.4 °F -1.5 °F -5.8 °F 48% 30.84 in 10.0 mi North 8.1 mph - N/A   Clear
1:35 AM 10.4 °F 0.8 °F -5.8 °F 48% 30.83 in 10.0 mi North 5.8 mph - N/A   Clear
1:55 AM 10.4 °F -0.4 °F -5.8 °F 48% 30.82 in 10.0 mi NNE 6.9 mph - N/A   Clear
2:15 AM 10.4 °F 2.2 °F -5.8 °F 48% 30.82 in 10.0 mi NNE 4.6 mph - N/A   Clear
2:35 AM 10.4 °F 4.0 °F -5.8 °F 48% 30.82 in 10.0 mi NNE 3.5 mph - N/A   Clear
2:55 AM 8.6 °F -1.3 °F -2.2 °F 62% 30.81 in 10.0 mi North 5.8 mph - N/A   Clear
3:15 AM 8.6 °F -1.3 °F -2.2 °F 62% 30.79 in 10.0 mi North 5.8 mph - N/A   Clear
3:35 AM 8.6 °F -1.3 °F -2.2 °F 62% 30.77 in 10.0 mi NNW 5.8 mph - N/A   Clear
3:55 AM 8.6 °F -1.3 °F -2.2 °F 62% 30.76 in 10.0 mi NNW 5.8 mph - N/A   Clear
4:15 AM 8.6 °F -1.3 °F -2.2 °F 62% 30.76 in 10.0 mi NW 5.8 mph - N/A   Clear
4:35 AM 8.6 °F -2.6 °F -2.2 °F 62% 30.75 in 10.0 mi NW 6.9 mph - N/A   Clear
4:55 AM 8.6 °F -1.3 °F -2.2 °F 62% 30.74 in 10.0 mi NW 5.8 mph - N/A   Clear
5:15 AM 8.6 °F -1.3 °F -2.2 °F 62% 30.73 in 10.0 mi WNW 5.8 mph - N/A   Clear
5:35 AM 8.6 °F -2.6 °F -2.2 °F 62% 30.73 in 10.0 mi NW 6.9 mph - N/A   Clear
5:55 AM 8.6 °F 0.1 °F -2.2 °F 62% 30.72 in 10.0 mi NW 4.6 mph - N/A   Clear
6:15 AM 8.6 °F 2.0 °F -0.4 °F 67% 30.71 in 10.0 mi NNW 3.5 mph - N/A   Clear
6:35 AM 8.6 °F 2.0 °F -2.2 °F 62% 30.69 in 10.0 mi NNW 3.5 mph - N/A   Clear
6:55 AM 8.6 °F - -2.2 °F 62% 30.69 in 10.0 mi Calm Calm - N/A   Clear
7:15 AM 8.6 °F - -0.4 °F 67% 30.67 in 10.0 mi Calm Calm - N/A   Clear
7:35 AM 8.6 °F - -0.4 °F 67% 30.67 in 10.0 mi Calm Calm - N/A   Clear
7:55 AM 8.6 °F - -4.0 °F 57% 30.67 in 10.0 mi Calm Calm - N/A   Clear
8:15 AM 10.4 °F 0.8 °F 1.4 °F 67% 30.67 in 10.0 mi SE 5.8 mph - N/A   Clear
8:35 AM 12.2 °F 0.7 °F -0.4 °F 57% 30.67 in 10.0 mi South 8.1 mph - N/A   Clear
8:55 AM 12.2 °F 0.7 °F -0.4 °F 57% 30.68 in 10.0 mi South 8.1 mph - N/A   Clear
9:15 AM 12.2 °F -1.0 °F -0.4 °F 57% 30.66 in 10.0 mi South 10.4 mph - N/A   Clear
9:35 AM 15.8 °F 1.4 °F -2.2 °F 45% 30.65 in 10.0 mi SSW 13.8 mph - N/A   Clear
9:55 AM 15.8 °F 0.3 °F -0.4 °F 49% 30.63 in 10.0 mi SSW 16.1 mph - N/A   Clear
10:15 AM 17.6 °F 3.7 °F 1.4 °F 49% 30.62 in 10.0 mi SSW 13.8 mph 21.9 mph N/A   Clear
10:35 AM 17.6 °F 3.7 °F 1.4 °F 49% 30.60 in 10.0 mi SSW 13.8 mph 21.9 mph N/A   Clear
10:55 AM 19.4 °F 6.0 °F 3.2 °F 49% 30.59 in 10.0 mi SSW 13.8 mph 19.6 mph N/A   Clear
11:15 AM 19.4 °F 5.5 °F 1.4 °F 46% 30.54 in 10.0 mi South 15.0 mph 19.6 mph N/A   Clear
11:35 AM 19.4 °F 6.0 °F 3.2 °F 49% 30.52 in 10.0 mi South 13.8 mph - N/A   Clear
11:55 AM 19.4 °F 6.0 °F 3.2 °F 49% 30.50 in 10.0 mi South 13.8 mph - N/A   Clear
12:15 PM 21.2 °F 6.8 °F 3.2 °F 46% 30.47 in 10.0 mi South 17.3 mph 21.9 mph N/A   Clear
12:35 PM 21.2 °F 5.6 °F 5.0 °F 50% 30.43 in 10.0 mi South 20.7 mph 26.5 mph N/A   Clear
12:55 PM 21.2 °F 6.0 °F 5.0 °F 50% 30.42 in 10.0 mi South 19.6 mph 25.3 mph N/A   Clear
1:15 PM 23.0 °F 8.7 °F 5.0 °F 46% 30.40 in 10.0 mi South 18.4 mph 27.6 mph N/A   Clear
1:35 PM 24.8 °F 10.7 °F 5.0 °F 43% 30.37 in 10.0 mi South 19.6 mph 26.5 mph N/A   Clear
1:55 PM 24.8 °F 11.1 °F 6.8 °F 46% 30.34 in 10.0 mi South 18.4 mph 26.5 mph N/A   Clear
2:15 PM 24.8 °F 9.6 °F 3.2 °F 40% 30.34 in 10.0 mi South 23.0 mph 28.8 mph N/A   Clear
2:35 PM 26.6 °F 12.4 °F 6.8 °F 43% 30.34 in 10.0 mi SSW 21.9 mph 28.8 mph N/A   Clear
2:55 PM 26.6 °F 13.1 °F 6.8 °F 43% 30.33 in 10.0 mi South 19.6 mph 25.3 mph N/A   Clear
3:15 PM 26.6 °F 13.1 °F 6.8 °F 43% 30.33 in 10.0 mi South 19.6 mph - N/A   Clear
3:35 PM 24.8 °F 11.1 °F 6.8 °F 46% 30.32 in 10.0 mi SSW 18.4 mph 25.3 mph N/A   Clear
3:55 PM 24.8 °F 11.5 °F 6.8 °F 46% 30.30 in 10.0 mi South 17.3 mph 25.3 mph N/A   Clear
4:15 PM 24.8 °F 10.7 °F 6.8 °F 46% 30.27 in 10.0 mi South 19.6 mph 25.3 mph N/A   Clear
4:35 PM 26.6 °F 13.4 °F 8.6 °F 47% 30.25 in 10.0 mi South 18.4 mph - N/A   Clear
4:55 PM 26.6 °F 13.1 °F 8.6 °F 47% 30.24 in 10.0 mi South 19.6 mph 23.0 mph N/A   Clear
5:15 PM 26.6 °F 13.4 °F 6.8 °F 43% 30.25 in 10.0 mi SSW 18.4 mph 23.0 mph N/A   Clear
5:35 PM 26.6 °F 11.4 °F 6.8 °F 43% 30.23 in 10.0 mi South 25.3 mph 31.1 mph N/A   Clear
5:55 PM 26.6 °F 11.7 °F 6.8 °F 43% 30.24 in 10.0 mi SSW 24.2 mph 28.8 mph N/A   Clear
6:15 PM 26.6 °F 13.4 °F 6.8 °F 43% 30.25 in 10.0 mi SSW 18.4 mph - N/A   Clear
6:35 PM 24.8 °F 11.1 °F 8.6 °F 50% 30.26 in 10.0 mi SSW 18.4 mph 21.9 mph N/A   Clear
6:55 PM 24.8 °F 11.5 °F 8.6 °F 50% 30.26 in 10.0 mi SSW 17.3 mph - N/A   Clear
7:15 PM 24.8 °F 12.9 °F 8.6 °F 50% 30.27 in 10.0 mi SSW 13.8 mph - N/A   Clear
7:35 PM 24.8 °F 12.9 °F 8.6 °F 50% 30.28 in 10.0 mi SSW 13.8 mph - N/A   Clear
7:55 PM 24.8 °F 12.9 °F 8.6 °F 50% 30.28 in 10.0 mi SSW 13.8 mph - N/A   Clear
8:15 PM 24.8 °F 12.9 °F 8.6 °F 50% 30.29 in 10.0 mi SSW 13.8 mph - N/A   Clear
8:35 PM 24.8 °F 12.9 °F 8.6 °F 50% 30.29 in 10.0 mi SSW 13.8 mph - N/A   Clear
8:55 PM 24.8 °F 12.9 °F 8.6 °F 50% 30.30 in 10.0 mi SSW 13.8 mph - N/A   Clear
9:15 PM 24.8 °F 13.4 °F 8.6 °F 50% 30.30 in 10.0 mi SSW 12.7 mph - N/A   Clear
9:35 PM 24.8 °F 12.9 °F 10.4 °F 54% 30.30 in 10.0 mi SSW 13.8 mph - N/A   Clear
9:55 PM 24.8 °F 12.4 °F 10.4 °F 54% 30.29 in 10.0 mi SSW 15.0 mph 20.7 mph N/A   Mostly Cloudy
10:15 PM 24.8 °F 11.1 °F 8.6 °F 50% 30.29 in 10.0 mi SSW 18.4 mph - N/A   Overcast
10:35 PM 24.8 °F 12.9 °F 10.4 °F 54% 30.29 in 10.0 mi SSW 13.8 mph - N/A   Mostly Cloudy
10:55 PM 24.8 °F 12.4 °F 10.4 °F 54% 30.29 in 10.0 mi SSW 15.0 mph - N/A   Overcast
11:15 PM 24.8 °F 12.9 °F 10.4 °F 54% 30.29 in 10.0 mi SW 13.8 mph - N/A   Overcast
11:35 PM 24.8 °F 12.9 °F 10.4 °F 54% 30.29 in 10.0 mi SW 13.8 mph - N/A   Overcast
11:55 PM 24.8 °F 14.6 °F 12.2 °F 59% 30.29 in 10.0 mi SSW 10.4 mph - N/A   Scattered Clouds